Location: La Fredeussais
(48.1780°N, 1.3980°W)
Time: 03:54:19
(UTC+00:00)

Cosmos 2278 Rocket - Pass Details

Date: 09 May 2021
Orbit: 842 x 845 km, 71.0° (Epoch: 13 June)

Event Time Altitude Azimuth Distance (km) Brightness Sun altitude
Exits shadow 20:49:44 14° 151° (SSE) 2,193 3.8 -11.5°
Maximum altitude 20:53:25 26° 103° (ESE) 1,602 3.2 -11.9°
Drops below altitude 10° 20:58:00 10° 49° (NE) 2,468 4.6 -12.5°
Sets 21:00:48 0° 37° (NE) 3,408 5.5 -12.8°
